Location: Mary A Oil Field
(38.5606°N, 98.9545°W)
Time: 23:44:43
(UTC+00:00)

Cosmos 2154 Rocket - Pass Details

Date: 20 January 2020
Orbit: 965 x 997 km, 82.9° (Epoch: 23 February)

Event Time Altitude Azimuth Distance (km) Brightness Sun altitude
Rises 11:29:17 0° 355° (N) 3,664 6.9 -27.3°
Reaches altitude 10° 11:31:49 10° 357° (N) 2,712 6.2 -26.8°
Maximum altitude 11:38:01 72° 82° (E) 1,013 4.1 -25.6°
Drops below altitude 10° 11:44:10 10° 167° (SSE) 2,697 6.5 -24.4°
Sets 11:46:41 0° 169° (S) 3,642 7.2 -23.9°
